COSMOS 407

导读

COSMOS 407(宇宙407号)是苏联(CIS)于1971年4月23日08:00发射的人造卫星,隶属于苏联“宇宙”系列卫星家族。该系列卫星承担了包括科学试验、空间技术验证以及军事侦察等多种航天任务,是苏联冷战时期航天探索的重要组成部分。COSMOS 407入轨后,按预定轨道稳定运行,完成了既定任务,为苏联后续航天技术发展积累了宝贵数据。

Basic Information
目录编号:
5174
目录名称:
COSMOS 407
国际标识:
1971-035A
轨道中心:
EARTH
卫星名称:
COSMOS 407
卫星全名:
--
卫星状态:
在轨 (已飞行20142 天)
发射日期:
1971-04-23 UTC
国别 :
俄罗斯(独联体) (CIS)
星等 :
--
Orbit Information
数据来源 国际轨道数据 AOE轨道数据
星历时间 2026-06-15T06:17:38+0800
7小时前
查看轨道信息
2026-06-15T05:00:00+0800
8小时前
查看轨道信息
半长轴 7155.709km 7155.707km
偏心率 0.0019392 0.0019499
轨道倾角 74.043° 74.045°
近地点辐角 294.800° 294.768°
升交点赤经 114.644° 114.742°
平近点角 65.113° 146.902°
近地点 763.695km 763.617km
远地点 791.449km 791.523km
周期 100.401分钟 100.401分钟
每日圈数 14.342464 14.34247
Detailed Information
使用方式:
暂无
2D Orbit Map
3D Orbit Map
Orbit Altitude Analysis Chart
Orbit Inclination Analysis Chart
Orbit Comprehensive Analysis Chart
View Comprehensive Chart